This demonstration page uses our WeatherBlox Daily Observations layout. Learn more.

Left ArrowRight Arrow

Hourly Observations for January 13, 2020

Temp ( °F °C ) Dew Point ( °F °C ) Humidity (%) Winds ( mph kmh ) Pressure ( in mb ) Visibility ( mi km ) Precip ( " mm )
12:53 am 00:53 Cloudy with Light Snow -4 -20 -10 -23.3 75 75 NNE 10 17 30.08 1019 3 4 0.00 0.00
1:01 am 01:01 Cloudy with Light Snow -4 -20 -10 -23.3 75 75 NNE 9 15 30.22 1023 2 3 0.00 0.00
1:12 am 01:12 Cloudy with Light Snow -4 -20 -9 -23 77 77 NNE 9 15 30.22 1023 2 3 0.00 0.00
1:25 am 01:25 Cloudy with Light Snow -4 -20 -10 -23.3 75 75 NE 12 19 30.21 1023 5 8 0.00 0.00
1:53 am 01:53 Cloudy -4 -20 -11 -23.9 71 71 NNE 10 17 30.07 1018 10 16 0.00 0.00
2:27 am 02:27 Cloudy with Light Snow -5 -20.6 -11 -23.9 75 75 NNE 8 13 30.23 1024 3 4 0.00 0.00
2:37 am 02:37 Cloudy with Light Snow -5 -20.6 -11 -23.9 75 75 NNE 8 13 30.24 1024 2 2 0.01 0.25
2:53 am 02:53 Cloudy with Light Snow -6 -21.1 -11 -23.9 78 78 NNE 13 20 30.09 1019 2 2 0.01 0.25
3:00 am 03:00 Cloudy with Light Snow -6 -21 -11 -24 77 77 NNE 10 17 30.23 1024 1 2 0.00 0.00
3:12 am 03:12 Cloudy with Light Snow -6 -21.1 -12 -24.4 75 75 NNE 10 17 30.24 1024 2 3 0.01 0.25
3:21 am 03:21 Cloudy with Light Snow -7 -21.7 -13 -25 75 75 NNE 9 15 30.25 1024 3 4 0.01 0.25
3:27 am 03:27 Cloudy with Light Snow -7 -21.7 -12 -24.4 79 79 NNE 9 15 30.25 1024 3 5 0.01 0.25
3:53 am 03:53 Cloudy with Haze -7 -21.7 -13 -25 75 75 NNE 9 15 30.10 1019 5 8 0.01 0.25
4:53 am 04:53 Cloudy -7 -21.7 -14 -25.6 71 71 NNE 10 17 30.10 1019 10 16 0.00 0.00
5:45 am 05:45 Cloudy with Haze -7 -21.7 -14 -25.6 71 71 N 9 15 30.27 1025 3 4 0.01 0.25
5:53 am 05:53 Cloudy with Haze -8 -22.2 -14 -25.6 74 74 N 9 15 30.13 1020 2 3 0.01 0.25
6:04 am 06:04 Cloudy with Haze -7 -21.7 -14 -25.6 71 71 N 9 15 30.28 1025 3 5 0.00 0.00
6:53 am 06:53 Cloudy with Light Snow -7 -21.7 -14 -25.6 71 71 NNE 5 7 30.14 1021 4 6 0.00 0.00
7:32 am 07:32 Cloudy with Light Snow -8 -22.2 -14 -25.6 74 74 NE 6 9 30.29 1026 3 4 0.01 0.25
7:41 am 07:41 Cloudy with Light Snow -8 -22.2 -14 -25.6 74 74 NNE 6 9 30.29 1026 4 6 0.01 0.25
7:53 am 07:53 Cloudy with Light Snow -8 -22.2 -14 -25.6 74 74 NE 5 7 30.14 1021 4 6 0.01 0.25
8:53 am 08:53 Cloudy -7 -21.7 -14 -25.6 71 71 Calm 30.16 1021 10 16 0.00 0.00
9:21 am 09:21 Cloudy with Haze -9 -22.8 -15 -26.1 75 75 NW 9 15 30.33 1027 2 3 0.00 0.00
9:26 am 09:26 Cloudy with Haze -9 -22.8 -16 -26.7 71 71 NW 10 17 30.33 1027 3 4 0.00 0.00
9:33 am 09:33 Mostly Cloudy with Haze -9 -22.8 -16 -26.7 71 71 NW 10 17 30.33 1027 6 10 0.00 0.00
9:53 am 09:53 Mostly Sunny -9 -22.8 -16 -26.7 71 71 NW 9 15 30.18 1022 9 14 0.00 0.00
10:53 am 10:53 Sunny -9 -22.8 -17 -27.2 67 67 NW 9 15 30.19 1022 10 16 0.00 0.00
11:53 am 11:53 Sunny -7 -21.7 -16 -26.7 64 64 WNW 9 15 30.18 1022 10 16 0.00 0.00
12:53 pm 12:53 Sunny -7 -21.7 -17 -27.2 61 61 NW 7 11 30.18 1022 10 16 0.00 0.00
1:53 pm 13:53 Sunny -7 -21.7 -18 -27.8 58 58 NW 12 19 30.18 1022 10 16 0.00 0.00
2:53 pm 14:53 Cloudy -8 -22.2 -18 -27.8 61 61 NW 10 17 30.20 1023 10 16 0.00 0.00
3:53 pm 15:53 Mostly Cloudy -9 -22.8 -18 -27.8 64 64 NNW 8 13 30.24 1024 9 14 0.00 0.00
4:12 pm 16:12 Partly Cloudy -9 -22.8 -19 -28.3 61 61 NW 9 15 30.40 1029 10 16 0.00 0.00
4:53 pm 16:53 Cloudy -9 -22.8 -18 -27.8 64 64 NW 9 15 30.26 1025 10 16 0.00 0.00
5:53 pm 17:53 Cloudy -9 -22.8 -18 -27.8 64 64 N 8 13 30.26 1025 10 16 0.00 0.00
6:53 pm 18:53 Cloudy -9 -22.8 -17 -27.2 67 67 NE 5 7 30.26 1025 10 16 0.00 0.00
7:53 pm 19:53 Cloudy -9 -22.8 -18 -27.8 64 64 Calm 30.27 1025 10 16 0.00 0.00
8:53 pm 20:53 Cloudy -9 -22.8 -17 -27.2 67 67 Calm 30.27 1025 10 16 0.00 0.00
9:53 pm 21:53 Mostly Clear -12 -24.4 -18 -27.8 73 73 ENE 5 7 30.27 1025 10 16 0.00 0.00
10:53 pm 22:53 Partly Cloudy -13 -25 -20 -28.9 70 70 NE 5 7 30.29 1026 10 16 0.00 0.00
11:53 pm 23:53 Cloudy -11 -23.9 -18 -27.8 70 70 Calm 30.28 1025 10 16 0.00 0.00

Powered by AerisWeather